Zurück zum Katalog

ION SCV-014

AktivKommunikationSSO
NORAD 62630·PAYLOAD·🇮🇹 Italy

Gestartet Jan 14, 2025 von Vandenberg Space Force Base

Loading…

Nächste Überflüge (nächste 24 Stunden)

TLE

AktuellSource: Space-Track

Epoche: Sep 14, 2026, 04:23 UTC

1 62630U 25009X   26257.18325309  .00000749  00000-0  56257-4 0  9995
2 62630  97.4781 327.6509 0004600 175.2569 184.8702 15.05457877 91371

Verfolge ION SCV-014 in Echtzeit mit AllMySat

Download on the App Store